Time,TemperatureF,DewpointF,PressureIn,WindDirection,WindDirectionDegrees,WindSpeedMPH,WindSpeedGustMPH,Humidity,HourlyPrecipIn,Conditions,Clouds,dailyrainin,SoftwareType,DateUTC
2013-02-04 00:00:00,26.7,17.2,29.94,WSW,239,7.0,7.0,67,0.00,,,0.07,Wunderground v.1.15,2013-02-04 06:00:00,
2013-02-04 00:06:00,26.8,17.6,29.94,WSW,247,6.0,7.0,68,0.00,,,0.00,Wunderground v.1.15,2013-02-04 06:06:00,
2013-02-04 00:12:00,26.7,17.6,29.93,WSW,244,6.0,7.0,68,0.00,,,0.00,Wunderground v.1.15,2013-02-04 06:12:00,
2013-02-04 00:17:00,26.9,17.4,29.93,WSW,240,6.0,8.0,67,0.00,,,0.00,Wunderground v.1.15,2013-02-04 06:17:00,
2013-02-04 00:23:00,26.9,17.7,29.92,WSW,238,6.0,7.0,68,0.00,,,0.00,Wunderground v.1.15,2013-02-04 06:23:00,
2013-02-04 00:29:00,26.9,17.7,29.92,WSW,243,6.0,8.0,68,0.00,,,0.00,Wunderground v.1.15,2013-02-04 06:29:00,
2013-02-04 00:34:00,27.2,18.0,29.92,WSW,237,7.0,10.0,68,0.00,,,0.00,Wunderground v.1.15,2013-02-04 06:34:00,
2013-02-04 00:39:00,27.2,18.0,29.92,WSW,246,6.0,10.0,68,0.00,,,0.00,Wunderground v.1.15,2013-02-04 06:39:00,
2013-02-04 00:45:00,27.3,18.1,29.91,SW,234,6.0,10.0,68,0.00,,,0.00,Wunderground v.1.15,2013-02-04 06:45:00,
2013-02-04 00:51:00,27.4,18.2,29.91,WSW,240,6.0,10.0,68,0.00,,,0.00,Wunderground v.1.15,2013-02-04 06:51:00,
2013-02-04 00:57:00,27.6,18.4,29.90,WSW,242,7.0,10.0,68,0.00,,,0.00,Wunderground v.1.15,2013-02-04 06:57:00,
2013-02-04 01:03:00,27.3,18.8,29.90,WSW,250,6.0,10.0,70,0.00,,,0.00,Wunderground v.1.15,2013-02-04 07:03:00,
2013-02-04 01:09:00,27.1,19.3,29.90,WSW,248,6.0,10.0,72,0.00,,,0.00,Wunderground v.1.15,2013-02-04 07:09:00,
2013-02-04 01:15:00,27.4,19.2,29.90,WSW,254,6.0,10.0,71,0.00,,,0.00,Wunderground v.1.15,2013-02-04 07:15:00,
2013-02-04 01:20:00,27.8,19.3,29.90,WSW,254,7.0,10.0,70,0.00,,,0.00,Wunderground v.1.15,2013-02-04 07:20:00,
2013-02-04 01:26:00,28.0,19.1,29.89,WSW,250,7.0,10.0,69,0.00,,,0.00,Wunderground v.1.15,2013-02-04 07:26:00,
2013-02-04 01:32:00,28.2,19.7,29.89,WSW,244,7.0,10.0,70,0.00,,,0.00,Wunderground v.1.15,2013-02-04 07:32:00,
2013-02-04 01:38:00,28.2,19.3,29.89,WSW,252,7.0,10.0,69,0.00,,,0.00,Wunderground v.1.15,2013-02-04 07:38:00,
2013-02-04 01:43:00,28.1,19.6,29.89,WSW,252,7.0,10.0,70,0.00,,,0.00,Wunderground v.1.15,2013-02-04 07:43:00,
2013-02-04 01:49:00,28.2,19.7,29.89,WSW,249,7.0,10.0,70,0.00,,,0.00,Wunderground v.1.15,2013-02-04 07:49:00,
2013-02-04 01:55:00,28.4,19.9,29.88,WSW,254,8.0,10.0,70,0.00,,,0.00,Wunderground v.1.15,2013-02-04 07:55:00,
2013-02-04 02:01:00,28.4,19.9,29.88,WSW,244,8.0,10.0,70,0.00,,,0.00,Wunderground v.1.15,2013-02-04 08:01:00,
2013-02-04 02:07:00,28.4,19.9,29.88,West,269,7.0,10.0,70,0.00,,,0.00,Wunderground v.1.15,2013-02-04 08:07:00,
2013-02-04 02:13:00,28.3,20.1,29.87,WSW,252,7.0,10.0,71,0.00,,,0.00,Wunderground v.1.15,2013-02-04 08:13:00,
2013-02-04 02:19:00,28.3,20.1,29.87,West,280,7.0,10.0,71,0.00,,,0.00,Wunderground v.1.15,2013-02-04 08:19:00,
2013-02-04 02:24:00,28.3,20.1,29.87,WSW,250,7.0,10.0,71,0.00,,,0.00,Wunderground v.1.15,2013-02-04 08:24:00,
2013-02-04 02:30:00,28.3,20.1,29.86,SW,229,8.0,8.0,71,0.00,,,0.00,Wunderground v.1.15,2013-02-04 08:30:00,
2013-02-04 02:36:00,28.3,20.1,29.86,WSW,255,7.0,10.0,71,0.00,,,0.00,Wunderground v.1.15,2013-02-04 08:36:00,
2013-02-04 02:42:00,28.3,20.1,29.86,WSW,248,7.0,9.0,71,0.00,,,0.00,Wunderground v.1.15,2013-02-04 08:42:00,
2013-02-04 02:48:00,28.5,20.6,29.86,West,259,7.0,10.0,72,0.00,,,0.00,Wunderground v.1.15,2013-02-04 08:48:00,
2013-02-04 02:54:00,28.5,20.6,29.85,WSW,252,6.0,10.0,72,0.00,,,0.00,Wunderground v.1.15,2013-02-04 08:54:00,
2013-02-04 03:00:00,28.5,20.6,29.85,WSW,250,6.0,10.0,72,0.00,,,0.00,Wunderground v.1.15,2013-02-04 09:00:00,
2013-02-04 03:06:00,28.4,20.5,29.85,WSW,251,6.0,10.0,72,0.00,,,0.00,Wunderground v.1.15,2013-02-04 09:06:00,
2013-02-04 03:11:00,28.3,20.4,29.85,WSW,251,6.0,10.0,72,0.00,,,0.00,Wunderground v.1.15,2013-02-04 09:11:00,
2013-02-04 03:17:00,28.2,20.7,29.85,WSW,256,6.0,10.0,73,0.00,,,0.00,Wunderground v.1.15,2013-02-04 09:17:00,
2013-02-04 03:23:00,28.2,20.3,29.84,West,259,6.0,10.0,72,0.00,,,0.00,Wunderground v.1.15,2013-02-04 09:23:00,
2013-02-04 03:29:00,28.2,20.7,29.84,WSW,257,7.0,10.0,73,0.00,,,0.00,Wunderground v.1.15,2013-02-04 09:29:00,
2013-02-04 03:34:00,28.1,20.6,29.84,WSW,252,7.0,10.0,73,0.00,,,0.00,Wunderground v.1.15,2013-02-04 09:34:00,
2013-02-04 03:40:00,28.2,20.7,29.83,WSW,250,7.0,10.0,73,0.00,,,0.00,Wunderground v.1.15,2013-02-04 09:40:00,
2013-02-04 03:45:00,28.1,20.6,29.83,West,259,6.0,10.0,73,0.00,,,0.00,Wunderground v.1.15,2013-02-04 09:45:00,
2013-02-04 03:51:00,27.9,20.7,29.83,West,259,6.0,10.0,74,0.00,,,0.00,Wunderground v.1.15,2013-02-04 09:51:00,
2013-02-04 03:56:00,27.9,20.7,29.83,WSW,249,6.0,10.0,74,0.00,,,0.00,Wunderground v.1.15,2013-02-04 09:56:00,
2013-02-04 04:01:00,28.0,21.1,29.83,WSW,256,6.0,10.0,75,0.00,,,0.00,Wunderground v.1.15,2013-02-04 10:01:00,
2013-02-04 04:07:00,28.1,20.9,29.83,West,267,6.0,10.0,74,0.00,,,0.00,Wunderground v.1.15,2013-02-04 10:07:00,
2013-02-04 04:13:00,28.3,21.1,29.83,WSW,255,5.0,10.0,74,0.00,,,0.00,Wunderground v.1.15,2013-02-04 10:13:00,
2013-02-04 04:19:00,28.4,21.2,29.83,WSW,244,4.0,10.0,74,0.00,,,0.00,Wunderground v.1.15,2013-02-04 10:19:00,
2013-02-04 04:24:00,28.4,20.8,29.83,WSW,244,3.0,10.0,73,0.00,,,0.00,Wunderground v.1.15,2013-02-04 10:24:00,
2013-02-04 04:30:00,28.5,21.3,29.83,WSW,244,2.0,10.0,74,0.00,,,0.00,Wunderground v.1.15,2013-02-04 10:30:00,
2013-02-04 04:36:00,28.5,21.9,29.83,WSW,244,2.0,10.0,76,0.00,,,0.00,Wunderground v.1.15,2013-02-04 10:36:00,
2013-02-04 04:42:00,28.5,21.9,29.83,WSW,244,2.0,10.0,76,0.00,,,0.00,Wunderground v.1.15,2013-02-04 10:42:00,
2013-02-04 04:47:00,28.6,22.0,29.83,WSW,241,4.0,10.0,76,0.00,,,0.00,Wunderground v.1.15,2013-02-04 10:47:00,
2013-02-04 04:53:00,28.6,22.3,29.83,WSW,241,4.0,10.0,77,0.00,,,0.00,Wunderground v.1.15,2013-02-04 10:53:00,
2013-02-04 04:59:00,28.9,22.6,29.83,WSW,252,4.0,10.0,77,0.00,,,0.00,Wunderground v.1.15,2013-02-04 10:59:00,
2013-02-04 05:05:00,29.2,22.6,29.83,West,260,5.0,10.0,76,0.00,,,0.00,Wunderground v.1.15,2013-02-04 11:05:00,
2013-02-04 05:11:00,29.6,22.6,29.83,WSW,250,6.0,10.0,75,0.00,,,0.00,Wunderground v.1.15,2013-02-04 11:11:00,
2013-02-04 05:17:00,29.7,22.4,29.82,WSW,258,6.0,10.0,74,0.00,,,0.00,Wunderground v.1.15,2013-02-04 11:17:00,
2013-02-04 05:23:00,29.7,22.4,29.82,WSW,252,7.0,10.0,74,0.00,,,0.00,Wunderground v.1.15,2013-02-04 11:23:00,
2013-02-04 05:29:00,29.7,22.4,29.81,WSW,258,7.0,10.0,74,0.00,,,0.00,Wunderground v.1.15,2013-02-04 11:29:00,
2013-02-04 05:34:00,29.8,22.8,29.81,West,263,7.0,10.0,75,0.00,,,0.00,Wunderground v.1.15,2013-02-04 11:34:00,
2013-02-04 05:40:00,30.0,22.7,29.81,WSW,255,8.0,10.0,74,0.00,,,0.00,Wunderground v.1.15,2013-02-04 11:40:00,
2013-02-04 05:46:00,30.1,22.8,29.81,WSW,254,8.0,10.0,74,0.00,,,0.00,Wunderground v.1.15,2013-02-04 11:46:00,
2013-02-04 05:51:00,30.3,23.0,29.81,West,267,8.0,10.0,74,0.00,,,0.00,Wunderground v.1.15,2013-02-04 11:51:00,
2013-02-04 05:57:00,30.5,23.2,29.81,West,266,7.0,10.0,74,0.00,,,0.00,Wunderground v.1.15,2013-02-04 11:57:00,
2013-02-04 06:03:00,30.9,23.6,29.80,West,265,8.0,10.0,74,0.00,,,0.00,Wunderground v.1.15,2013-02-04 12:03:00,
2013-02-04 06:09:00,31.7,24.0,29.80,WSW,254,9.0,12.0,73,0.00,,,0.00,Wunderground v.1.15,2013-02-04 12:09:00,
2013-02-04 06:16:00,32.2,24.2,29.80,West,269,9.0,10.0,72,0.00,,,0.00,Wunderground v.1.15,2013-02-04 12:16:00,
2013-02-04 06:22:00,31.9,23.9,29.79,West,276,8.0,10.0,72,0.00,,,0.00,Wunderground v.1.15,2013-02-04 12:22:00,
2013-02-04 06:28:00,31.9,23.9,29.79,West,275,8.0,10.0,72,0.00,,,0.00,Wunderground v.1.15,2013-02-04 12:28:00,
2013-02-04 06:34:00,31.6,23.9,29.79,West,271,8.0,10.0,73,0.00,,,0.00,Wunderground v.1.15,2013-02-04 12:34:00,
2013-02-04 06:39:00,31.5,23.8,29.79,West,280,7.0,10.0,73,0.00,,,0.00,Wunderground v.1.15,2013-02-04 12:39:00,
2013-02-04 06:45:00,31.5,23.8,29.79,West,273,7.0,10.0,73,0.00,,,0.00,Wunderground v.1.15,2013-02-04 12:45:00,
2013-02-04 06:51:00,31.5,23.8,29.79,West,276,7.0,10.0,73,0.00,,,0.00,Wunderground v.1.15,2013-02-04 12:51:00,
2013-02-04 06:58:00,31.7,24.0,29.79,West,273,7.0,10.0,73,0.00,,,0.00,Wunderground v.1.15,2013-02-04 12:58:00,
2013-02-04 07:04:00,31.8,24.1,29.79,West,278,7.0,10.0,73,0.00,,,0.00,Wunderground v.1.15,2013-02-04 13:04:00,
2013-02-04 07:10:00,31.6,23.9,29.79,West,262,7.0,7.0,73,0.00,,,0.00,Wunderground v.1.15,2013-02-04 13:10:00,
2013-02-04 07:16:00,31.5,24.2,29.79,West,269,6.0,10.0,74,0.00,,,0.00,Wunderground v.1.15,2013-02-04 13:16:00,
2013-02-04 07:22:00,31.8,24.5,29.79,WNW,283,6.0,10.0,74,0.00,,,0.00,Wunderground v.1.15,2013-02-04 13:22:00,
2013-02-04 07:27:00,31.9,24.6,29.79,West,279,7.0,10.0,74,0.00,,,0.00,Wunderground v.1.15,2013-02-04 13:27:00,
2013-02-04 07:33:00,32.0,24.6,29.79,West,280,7.0,10.0,74,0.00,,,0.00,Wunderground v.1.15,2013-02-04 13:33:00,
2013-02-04 07:39:00,32.2,24.8,29.79,West,279,7.0,10.0,74,0.00,,,0.00,Wunderground v.1.15,2013-02-04 13:39:00,
2013-02-04 07:45:00,32.1,24.7,29.80,WNW,288,6.0,10.0,74,0.00,,,0.00,Wunderground v.1.15,2013-02-04 13:45:00,
2013-02-04 07:51:00,32.4,25.0,29.80,WNW,288,5.0,10.0,74,0.00,,,0.00,Wunderground v.1.15,2013-02-04 13:51:00,
2013-02-04 07:57:00,32.9,25.2,29.81,WNW,287,6.0,10.0,73,0.00,,,0.00,Wunderground v.1.15,2013-02-04 13:57:00,
2013-02-04 08:03:00,32.9,25.2,29.81,WNW,287,4.0,10.0,73,0.00,,,0.00,Wunderground v.1.15,2013-02-04 14:03:00,
2013-02-04 08:08:00,33.1,25.1,29.82,ENE,64,1.0,10.0,72,0.00,,,0.00,Wunderground v.1.15,2013-02-04 14:08:00,
2013-02-04 08:14:00,33.1,25.4,29.82,NE,50,2.0,10.0,73,0.00,,,0.00,Wunderground v.1.15,2013-02-04 14:14:00,
2013-02-04 08:20:00,33.2,25.8,29.82,NE,50,2.0,2.0,74,0.00,,,0.00,Wunderground v.1.15,2013-02-04 14:20:00,
2013-02-04 08:26:00,33.6,25.9,29.82,NE,50,1.0,10.0,73,0.00,,,0.00,Wunderground v.1.15,2013-02-04 14:26:00,
2013-02-04 08:31:00,34.2,26.4,29.82,NE,50,2.0,10.0,73,0.00,,,0.00,Wunderground v.1.15,2013-02-04 14:31:00,
2013-02-04 08:37:00,35.0,26.9,29.82,WNW,301,3.0,10.0,72,0.00,,,0.00,Wunderground v.1.15,2013-02-04 14:37:00,
2013-02-04 08:43:00,35.6,27.1,29.82,NW,318,3.0,10.0,71,0.00,,,0.00,Wunderground v.1.15,2013-02-04 14:43:00,
2013-02-04 08:49:00,36.2,27.0,29.82,NW,321,3.0,10.0,69,0.00,,,0.00,Wunderground v.1.15,2013-02-04 14:49:00,
2013-02-04 08:54:00,36.8,27.2,29.82,NW,315,3.0,10.0,68,0.00,,,0.00,Wunderground v.1.15,2013-02-04 14:54:00,
2013-02-04 09:00:00,37.1,27.2,29.82,North,355,3.0,3.0,67,0.00,,,0.00,Wunderground v.1.15,2013-02-04 15:00:00,
2013-02-04 09:06:00,37.3,27.3,29.82,NW,305,2.0,10.0,67,0.00,,,0.00,Wunderground v.1.15,2013-02-04 15:06:00,
2013-02-04 09:11:00,37.5,27.9,29.82,NW,312,2.0,5.0,68,0.00,,,0.00,Wunderground v.1.15,2013-02-04 15:11:00,
2013-02-04 09:17:00,37.8,28.2,29.82,North,355,3.0,10.0,68,0.00,,,0.00,Wunderground v.1.15,2013-02-04 15:17:00,
2013-02-04 09:23:00,38.0,28.4,29.82,North,5,2.0,10.0,68,0.00,,,0.00,Wunderground v.1.15,2013-02-04 15:23:00,
2013-02-04 09:29:00,38.2,28.2,29.83,ESE,105,2.0,10.0,67,0.00,,,0.00,Wunderground v.1.15,2013-02-04 15:29:00,
2013-02-04 09:34:00,38.2,28.2,29.82,NE,38,3.0,10.0,67,0.00,,,0.00,Wunderground v.1.15,2013-02-04 15:34:00,
2013-02-04 09:40:00,38.1,28.5,29.82,North,9,3.0,3.0,68,0.00,,,0.00,Wunderground v.1.15,2013-02-04 15:40:00,
2013-02-04 09:46:00,37.9,28.6,29.83,NE,49,2.0,10.0,69,0.00,,,0.00,Wunderground v.1.15,2013-02-04 15:46:00,
2013-02-04 09:52:00,38.2,29.3,29.83,ENE,71,3.0,10.0,70,0.00,,,0.00,Wunderground v.1.15,2013-02-04 15:52:00,
2013-02-04 09:57:00,38.7,29.0,29.82,East,92,4.0,10.0,68,0.00,,,0.00,Wunderground v.1.15,2013-02-04 15:57:00,
2013-02-04 10:02:00,38.8,29.1,29.83,NE,56,5.0,10.0,68,0.00,,,0.00,Wunderground v.1.15,2013-02-04 16:02:00,
2013-02-04 10:08:00,38.8,29.1,29.83,ENE,67,7.0,10.0,68,0.00,,,0.00,Wunderground v.1.15,2013-02-04 16:08:00,
2013-02-04 10:14:00,38.7,29.0,29.83,NE,42,8.0,10.0,68,0.00,,,0.00,Wunderground v.1.15,2013-02-04 16:14:00,
2013-02-04 10:19:00,38.7,29.4,29.84,NE,46,10.0,10.0,69,0.00,,,0.00,Wunderground v.1.15,2013-02-04 16:19:00,
2013-02-04 10:26:00,38.9,29.6,29.84,ENE,60,8.0,12.0,69,0.00,,,0.00,Wunderground v.1.15,2013-02-04 16:26:00,
2013-02-04 10:32:00,38.9,29.6,29.84,ENE,66,8.0,10.0,69,0.00,,,0.00,Wunderground v.1.15,2013-02-04 16:32:00,
2013-02-04 10:38:00,39.0,29.7,29.84,ENE,64,8.0,10.0,69,0.00,,,0.00,Wunderground v.1.15,2013-02-04 16:38:00,
2013-02-04 10:43:00,39.3,30.3,29.84,East,79,8.0,10.0,70,0.00,,,0.00,Wunderground v.1.15,2013-02-04 16:43:00,
2013-02-04 10:50:00,39.5,30.5,29.85,ENE,65,8.0,10.0,70,0.00,,,0.00,Wunderground v.1.15,2013-02-04 16:50:00,
2013-02-04 10:56:00,39.7,30.7,29.85,NE,54,7.0,10.0,70,0.00,,,0.00,Wunderground v.1.15,2013-02-04 16:56:00,
2013-02-04 11:02:00,39.7,30.7,29.85,NE,42,7.0,10.0,70,0.00,,,0.00,Wunderground v.1.15,2013-02-04 17:02:00,
2013-02-04 11:07:00,39.4,30.1,29.85,ENE,78,8.0,12.0,69,0.00,,,0.00,Wunderground v.1.15,2013-02-04 17:07:00,
2013-02-04 11:13:00,39.5,30.5,29.86,NE,34,9.0,11.0,70,0.00,,,0.00,Wunderground v.1.15,2013-02-04 17:13:00,
2013-02-04 11:19:00,39.5,30.5,29.86,NE,52,9.0,11.0,70,0.00,,,0.00,Wunderground v.1.15,2013-02-04 17:19:00,
2013-02-04 11:24:00,39.5,30.5,29.86,ENE,60,9.0,12.0,70,0.00,,,0.00,Wunderground v.1.15,2013-02-04 17:24:00,
2013-02-04 11:30:00,39.6,31.0,29.86,ENE,65,8.0,8.0,71,0.00,,,0.00,Wunderground v.1.15,2013-02-04 17:30:00,
2013-02-04 11:36:00,39.6,30.6,29.87,NE,45,8.0,10.0,70,0.00,,,0.00,Wunderground v.1.15,2013-02-04 17:36:00,
2013-02-04 11:42:00,39.4,30.1,29.87,NE,49,8.0,11.0,69,0.00,,,0.00,Wunderground v.1.15,2013-02-04 17:42:00,
2013-02-04 11:47:00,38.9,29.6,29.87,ENE,65,9.0,11.0,69,0.00,,,0.00,Wunderground v.1.15,2013-02-04 17:47:00,
2013-02-04 11:53:00,39.0,30.7,29.87,East,81,9.0,11.0,72,0.00,,,0.00,Wunderground v.1.15,2013-02-04 17:53:00,
2013-02-04 11:59:00,38.8,29.8,29.88,ENE,76,8.0,11.0,70,0.00,,,0.00,Wunderground v.1.15,2013-02-04 17:59:00,
2013-02-04 12:05:00,39.0,30.4,29.88,NE,43,7.0,10.0,71,0.00,,,0.00,Wunderground v.1.15,2013-02-04 18:05:00,
2013-02-04 12:10:00,39.1,30.1,29.88,ENE,66,7.0,11.0,70,0.00,,,0.00,Wunderground v.1.15,2013-02-04 18:10:00,
2013-02-04 12:16:00,38.4,29.5,29.88,NE,54,9.0,13.0,70,0.00,,,0.00,Wunderground v.1.15,2013-02-04 18:16:00,
2013-02-04 12:22:00,38.3,29.7,29.88,ENE,75,10.0,12.0,71,0.00,,,0.00,Wunderground v.1.15,2013-02-04 18:22:00,
2013-02-04 12:28:00,37.9,29.0,29.89,NE,53,10.0,14.0,70,0.00,,,0.00,Wunderground v.1.15,2013-02-04 18:28:00,
2013-02-04 12:34:00,38.1,29.2,29.89,NE,46,9.0,13.0,70,0.00,,,0.00,Wunderground v.1.15,2013-02-04 18:34:00,
2013-02-04 12:40:00,38.0,29.8,29.89,ESE,103,10.0,10.0,72,0.00,,,0.00,Wunderground v.1.15,2013-02-04 18:40:00,
2013-02-04 12:46:00,37.7,28.4,29.89,NE,55,9.0,13.0,69,0.00,,,0.00,Wunderground v.1.15,2013-02-04 18:46:00,
2013-02-04 12:51:00,37.4,28.5,29.89,ENE,58,10.0,10.0,70,0.00,,,0.00,Wunderground v.1.15,2013-02-04 18:51:00,
2013-02-04 12:57:00,37.6,29.0,29.90,East,86,9.0,15.0,71,0.00,,,0.00,Wunderground v.1.15,2013-02-04 18:57:00,
2013-02-04 13:03:00,37.4,28.5,29.89,East,96,10.0,14.0,70,0.00,,,0.00,Wunderground v.1.15,2013-02-04 19:03:00,
2013-02-04 13:09:00,37.0,28.1,29.90,ENE,64,11.0,16.0,70,0.00,,,0.00,Wunderground v.1.15,2013-02-04 19:09:00,
2013-02-04 13:14:00,36.8,28.3,29.90,ENE,69,11.0,13.0,71,0.00,,,0.00,Wunderground v.1.15,2013-02-04 19:14:00,
2013-02-04 13:20:00,36.8,28.3,29.90,NE,53,11.0,11.0,71,0.00,,,0.00,Wunderground v.1.15,2013-02-04 19:20:00,
2013-02-04 13:26:00,36.9,29.1,29.89,East,87,10.0,13.0,73,0.00,,,0.00,Wunderground v.1.15,2013-02-04 19:26:00,
2013-02-04 13:32:00,36.8,28.3,29.90,ENE,78,10.0,13.0,71,0.00,,,0.00,Wunderground v.1.15,2013-02-04 19:32:00,
2013-02-04 13:38:00,36.4,28.2,29.90,NE,44,11.0,15.0,72,0.00,,,0.00,Wunderground v.1.15,2013-02-04 19:38:00,
2013-02-04 13:44:00,36.5,28.3,29.91,ENE,57,10.0,12.0,72,0.00,,,0.00,Wunderground v.1.15,2013-02-04 19:44:00,
2013-02-04 13:50:00,36.1,28.3,29.91,NE,51,10.0,11.0,73,0.00,,,0.00,Wunderground v.1.15,2013-02-04 19:50:00,
2013-02-04 13:55:00,35.5,27.7,29.91,ENE,77,9.0,12.0,73,0.00,,,0.00,Wunderground v.1.15,2013-02-04 19:55:00,
2013-02-04 14:01:00,35.0,27.9,29.90,ENE,60,9.0,10.0,75,0.00,,,0.00,Wunderground v.1.15,2013-02-04 20:01:00,
2013-02-04 14:07:00,34.8,28.0,29.90,ENE,60,9.0,14.0,76,0.00,,,0.00,Wunderground v.1.15,2013-02-04 20:07:00,
2013-02-04 14:13:00,34.7,27.6,29.90,ENE,63,9.0,14.0,75,0.00,,,0.00,Wunderground v.1.15,2013-02-04 20:13:00,
2013-02-04 14:19:00,33.9,26.8,29.90,ENE,73,10.0,14.0,75,0.00,,,0.00,Wunderground v.1.15,2013-02-04 20:19:00,
2013-02-04 14:24:00,33.8,27.0,29.91,ENE,60,9.0,10.0,76,0.00,,,0.00,Wunderground v.1.15,2013-02-04 20:24:00,
2013-02-04 14:30:00,33.8,27.0,29.91,NE,49,8.0,8.0,76,0.00,,,0.00,Wunderground v.1.15,2013-02-04 20:30:00,
2013-02-04 14:36:00,33.4,26.3,29.91,ENE,76,10.0,14.0,75,0.00,,,0.00,Wunderground v.1.15,2013-02-04 20:36:00,
2013-02-04 14:42:00,33.5,26.4,29.91,East,87,9.0,12.0,75,0.00,,,0.00,Wunderground v.1.15,2013-02-04 20:42:00,
2013-02-04 14:47:00,33.6,26.5,29.91,East,96,8.0,12.0,75,0.00,,,0.00,Wunderground v.1.15,2013-02-04 20:47:00,
2013-02-04 14:54:00,33.6,26.5,29.90,ESE,113,8.0,10.0,75,0.00,,,0.00,Wunderground v.1.15,2013-02-04 20:54:00,
2013-02-04 15:00:00,33.3,26.2,29.90,ESE,102,9.0,10.0,75,0.00,,,0.00,Wunderground v.1.15,2013-02-04 21:00:00,
2013-02-04 15:06:00,33.0,26.3,29.91,East,82,9.0,13.0,76,0.00,,,0.00,Wunderground v.1.15,2013-02-04 21:06:00,
2013-02-04 15:11:00,33.4,26.6,29.91,ENE,74,8.0,10.0,76,0.00,,,0.00,Wunderground v.1.15,2013-02-04 21:11:00,
2013-02-04 15:17:00,33.3,26.2,29.91,East,86,7.0,11.0,75,0.00,,,0.00,Wunderground v.1.15,2013-02-04 21:17:00,
2013-02-04 15:23:00,32.9,26.2,29.92,East,100,8.0,11.0,76,0.00,,,0.00,Wunderground v.1.15,2013-02-04 21:23:00,
2013-02-04 15:30:00,32.5,25.8,29.92,East,101,9.0,10.0,76,0.00,,,0.00,Wunderground v.1.15,2013-02-04 21:30:00,
2013-02-04 15:36:00,32.4,26.0,29.93,East,92,8.0,11.0,77,0.00,,,0.00,Wunderground v.1.15,2013-02-04 21:36:00,
2013-02-04 15:42:00,32.3,25.9,29.93,East,94,8.0,10.0,77,0.00,,,0.00,Wunderground v.1.15,2013-02-04 21:42:00,
2013-02-04 15:48:00,31.8,25.4,29.93,East,88,7.0,10.0,77,0.00,,,0.00,Wunderground v.1.15,2013-02-04 21:48:00,
2013-02-04 15:53:00,31.4,24.7,29.94,East,88,7.0,10.0,76,0.00,,,0.00,Wunderground v.1.15,2013-02-04 21:53:00,
2013-02-04 15:59:00,31.2,25.1,29.94,East,80,7.0,10.0,78,0.00,,,0.00,Wunderground v.1.15,2013-02-04 21:59:00,
2013-02-04 16:05:00,30.9,24.8,29.94,ENE,74,7.0,11.0,78,0.00,,,0.00,Wunderground v.1.15,2013-02-04 22:05:00,
2013-02-04 16:12:00,30.6,24.6,29.95,ENE,78,8.0,10.0,78,0.00,,,0.00,Wunderground v.1.15,2013-02-04 22:12:00,
2013-02-04 16:18:00,30.3,24.3,29.95,ENE,57,8.0,10.0,78,0.00,,,0.00,Wunderground v.1.15,2013-02-04 22:18:00,
2013-02-04 16:24:00,30.1,24.4,29.96,NE,54,9.0,13.0,79,0.00,,,0.00,Wunderground v.1.15,2013-02-04 22:24:00,
2013-02-04 16:30:00,29.9,24.2,29.96,East,80,9.0,10.0,79,0.00,,,0.00,Wunderground v.1.15,2013-02-04 22:30:00,
2013-02-04 16:36:00,29.7,24.3,29.97,NE,46,9.0,10.0,80,0.00,,,0.00,Wunderground v.1.15,2013-02-04 22:36:00,
2013-02-04 16:41:00,29.6,24.2,29.96,ENE,76,8.0,10.0,80,0.00,,,0.00,Wunderground v.1.15,2013-02-04 22:41:00,
2013-02-04 16:47:00,29.3,23.9,29.97,ENE,58,8.0,11.0,80,0.00,,,0.00,Wunderground v.1.15,2013-02-04 22:47:00,
2013-02-04 16:53:00,29.0,23.9,29.97,East,87,9.0,10.0,81,0.00,,,0.00,Wunderground v.1.15,2013-02-04 22:53:00,
2013-02-04 16:58:00,28.9,24.1,29.96,East,86,7.0,10.0,82,0.00,,,0.00,Wunderground v.1.15,2013-02-04 22:58:00,
2013-02-04 17:04:00,28.7,23.6,29.96,ENE,72,6.0,10.0,81,0.00,,,0.00,Wunderground v.1.15,2013-02-04 23:04:00,
2013-02-04 17:10:00,28.5,23.4,29.96,East,87,7.0,10.0,81,0.00,,,0.00,Wunderground v.1.15,2013-02-04 23:10:00,
2013-02-04 17:16:00,28.1,23.0,29.96,East,98,6.0,10.0,81,0.00,,,0.00,Wunderground v.1.15,2013-02-04 23:16:00,
2013-02-04 17:21:00,28.0,23.2,29.96,East,92,7.0,10.0,82,0.00,,,0.00,Wunderground v.1.15,2013-02-04 23:21:00,
2013-02-04 17:27:00,27.8,23.0,29.96,ENE,71,6.0,10.0,82,0.00,,,0.00,Wunderground v.1.15,2013-02-04 23:27:00,
2013-02-04 17:33:00,27.6,22.8,29.97,East,85,7.0,10.0,82,0.00,,,0.00,Wunderground v.1.15,2013-02-04 23:33:00,
2013-02-04 17:39:00,27.3,22.5,29.97,ESE,115,6.0,10.0,82,0.00,,,0.00,Wunderground v.1.15,2013-02-04 23:39:00,
2013-02-04 17:44:00,27.2,22.4,29.97,ENE,78,6.0,10.0,82,0.00,,,0.00,Wunderground v.1.15,2013-02-04 23:44:00,
2013-02-04 17:50:00,27.2,22.7,29.97,East,90,6.0,10.0,83,0.00,,,0.00,Wunderground v.1.15,2013-02-04 23:50:00,
2013-02-04 17:56:00,27.1,22.6,29.97,East,91,7.0,10.0,83,0.00,,,0.00,Wunderground v.1.15,2013-02-04 23:56:00,
2013-02-04 18:01:00,27.0,22.5,29.97,East,98,7.0,10.0,83,0.00,,,0.00,Wunderground v.1.15,2013-02-05 00:01:00,
2013-02-04 18:07:00,26.9,22.4,29.97,East,90,7.0,10.0,83,0.00,,,0.00,Wunderground v.1.15,2013-02-05 00:07:00,
2013-02-04 18:12:00,26.9,22.4,29.98,East,88,6.0,10.0,83,0.00,,,0.00,Wunderground v.1.15,2013-02-05 00:12:00,
2013-02-04 18:18:00,26.9,22.4,29.98,East,88,5.0,10.0,83,0.00,,,0.00,Wunderground v.1.15,2013-02-05 00:18:00,
2013-02-04 18:24:00,26.8,22.6,29.98,East,101,6.0,10.0,84,0.00,,,0.00,Wunderground v.1.15,2013-02-05 00:24:00,
2013-02-04 18:30:00,26.5,22.0,29.97,ESE,109,9.0,10.0,83,0.00,,,0.00,Wunderground v.1.15,2013-02-05 00:30:00,
2013-02-04 18:35:00,26.4,22.2,29.97,ENE,75,10.0,12.0,84,0.00,,,0.00,Wunderground v.1.15,2013-02-05 00:35:00,
2013-02-04 18:41:00,26.3,21.8,29.97,East,87,8.0,10.0,83,0.00,,,0.00,Wunderground v.1.15,2013-02-05 00:41:00,
2013-02-04 18:47:00,26.3,21.8,29.98,ENE,67,7.0,10.0,83,0.00,,,0.00,Wunderground v.1.15,2013-02-05 00:47:00,
2013-02-04 18:53:00,26.4,21.9,29.97,ENE,67,6.0,10.0,83,0.00,,,0.00,Wunderground v.1.15,2013-02-05 00:53:00,
2013-02-04 18:58:00,26.4,21.9,29.98,ENE,75,6.0,10.0,83,0.00,,,0.00,Wunderground v.1.15,2013-02-05 00:58:00,
2013-02-04 19:04:00,26.5,22.0,29.99,East,91,6.0,10.0,83,0.00,,,0.00,Wunderground v.1.15,2013-02-05 01:04:00,
2013-02-04 19:10:00,26.6,22.4,29.99,ENE,74,5.0,10.0,84,0.00,,,0.00,Wunderground v.1.15,2013-02-05 01:10:00,
2013-02-04 19:16:00,26.6,22.1,29.99,ENE,71,5.0,10.0,83,0.00,,,0.00,Wunderground v.1.15,2013-02-05 01:16:00,
2013-02-04 19:21:00,26.7,22.2,29.99,East,80,4.0,10.0,83,0.00,,,0.00,Wunderground v.1.15,2013-02-05 01:21:00,
2013-02-04 19:28:00,26.6,22.1,29.98,East,79,5.0,10.0,83,0.00,,,0.00,Wunderground v.1.15,2013-02-05 01:28:00,
2013-02-04 19:34:00,26.7,22.2,29.99,ESE,108,4.0,10.0,83,0.00,,,0.00,Wunderground v.1.15,2013-02-05 01:34:00,
2013-02-04 19:40:00,26.7,22.2,29.99,East,99,4.0,10.0,83,0.00,,,0.00,Wunderground v.1.15,2013-02-05 01:40:00,
2013-02-04 19:45:00,26.7,22.2,29.99,East,98,6.0,10.0,83,0.00,,,0.00,Wunderground v.1.15,2013-02-05 01:45:00,
2013-02-04 19:51:00,26.6,21.8,29.99,East,101,5.0,10.0,82,0.00,,,0.00,Wunderground v.1.15,2013-02-05 01:51:00,
2013-02-04 19:57:00,26.7,22.2,30.00,ENE,70,4.0,10.0,83,0.00,,,0.00,Wunderground v.1.15,2013-02-05 01:57:00,
2013-02-04 20:03:00,26.8,22.3,29.99,NE,56,3.0,10.0,83,0.00,,,0.00,Wunderground v.1.15,2013-02-05 02:03:00,
2013-02-04 20:09:00,26.8,22.3,30.00,East,89,3.0,10.0,83,0.00,,,0.00,Wunderground v.1.15,2013-02-05 02:09:00,
2013-02-04 20:14:00,26.8,22.0,29.99,ENE,72,3.0,10.0,82,0.00,,,0.00,Wunderground v.1.15,2013-02-05 02:14:00,
2013-02-04 20:20:00,26.7,21.9,29.99,ENE,77,3.0,3.0,82,0.00,,,0.00,Wunderground v.1.15,2013-02-05 02:20:00,
2013-02-04 20:26:00,26.7,21.9,29.98,East,80,3.0,10.0,82,0.00,,,0.00,Wunderground v.1.15,2013-02-05 02:26:00,
2013-02-04 20:32:00,26.7,21.9,29.98,ENE,78,2.0,10.0,82,0.00,,,0.00,Wunderground v.1.15,2013-02-05 02:32:00,
2013-02-04 20:39:00,26.7,21.9,29.99,ENE,78,1.0,10.0,82,0.00,,,0.00,Wunderground v.1.15,2013-02-05 02:39:00,
2013-02-04 20:45:00,26.7,21.9,29.99,ENE,78,1.0,10.0,82,0.00,,,0.00,Wunderground v.1.15,2013-02-05 02:45:00,
2013-02-04 20:51:00,26.6,21.8,30.01,ENE,64,2.0,10.0,82,0.00,,,0.00,Wunderground v.1.15,2013-02-05 02:51:00,
2013-02-04 20:57:00,26.7,22.2,30.01,ENE,61,3.0,10.0,83,0.00,,,0.00,Wunderground v.1.15,2013-02-05 02:57:00,
2013-02-04 21:03:00,26.7,21.9,30.00,NE,40,2.0,10.0,82,0.00,,,0.00,Wunderground v.1.15,2013-02-05 03:03:00,
2013-02-04 21:09:00,26.7,21.9,30.00,NE,40,2.0,10.0,82,0.00,,,0.00,Wunderground v.1.15,2013-02-05 03:09:00,
2013-02-04 21:14:00,26.7,21.9,30.00,NE,40,2.0,10.0,82,0.00,,,0.00,Wunderground v.1.15,2013-02-05 03:14:00,
2013-02-04 21:20:00,26.7,21.9,30.00,NE,40,1.0,10.0,82,0.00,,,0.00,Wunderground v.1.15,2013-02-05 03:20:00,
2013-02-04 21:26:00,26.6,22.1,30.00,NE,40,1.0,10.0,83,0.00,,,0.00,Wunderground v.1.15,2013-02-05 03:26:00,
2013-02-04 21:32:00,26.6,22.1,30.00,NE,40,0.0,10.0,83,0.00,,,0.00,Wunderground v.1.15,2013-02-05 03:32:00,
2013-02-04 21:37:00,26.5,22.0,30.00,NE,40,0.0,10.0,83,0.00,,,0.00,Wunderground v.1.15,2013-02-05 03:37:00,
2013-02-04 21:43:00,26.3,21.8,29.99,NE,40,0.0,10.0,83,0.00,,,0.00,Wunderground v.1.15,2013-02-05 03:43:00,
2013-02-04 21:49:00,26.3,22.1,30.00,NE,40,0.0,10.0,84,0.00,,,0.00,Wunderground v.1.15,2013-02-05 03:49:00,
2013-02-04 21:55:00,26.4,22.2,30.00,NE,40,1.0,10.0,84,0.00,,,0.00,Wunderground v.1.15,2013-02-05 03:55:00,
2013-02-04 22:01:00,26.4,22.2,30.00,NE,40,1.0,10.0,84,0.00,,,0.00,Wunderground v.1.15,2013-02-05 04:01:00,
2013-02-04 22:06:00,26.4,21.9,30.00,NE,40,0.0,10.0,83,0.00,,,0.00,Wunderground v.1.15,2013-02-05 04:06:00,
2013-02-04 22:12:00,26.4,21.9,30.00,NE,40,0.0,10.0,83,0.00,,,0.00,Wunderground v.1.15,2013-02-05 04:12:00,
2013-02-04 22:18:00,26.3,21.8,30.00,NE,40,0.0,10.0,83,0.00,,,0.00,Wunderground v.1.15,2013-02-05 04:18:00,
2013-02-04 22:23:00,26.3,21.8,29.99,NE,40,0.0,10.0,83,0.00,,,0.00,Wunderground v.1.15,2013-02-05 04:23:00,
2013-02-04 22:29:00,26.4,21.9,29.99,NE,40,0.0,10.0,83,0.00,,,0.00,Wunderground v.1.15,2013-02-05 04:29:00,
2013-02-04 22:35:00,26.4,21.9,29.99,NE,40,1.0,10.0,83,0.00,,,0.00,Wunderground v.1.15,2013-02-05 04:35:00,
2013-02-04 22:41:00,26.3,21.8,29.99,NE,40,1.0,10.0,83,0.00,,,0.00,Wunderground v.1.15,2013-02-05 04:41:00,
2013-02-04 22:47:00,26.3,21.8,29.98,NE,40,0.0,10.0,83,0.00,,,0.00,Wunderground v.1.15,2013-02-05 04:47:00,
2013-02-04 22:53:00,26.1,21.6,29.98,NE,40,1.0,10.0,83,0.00,,,0.00,Wunderground v.1.15,2013-02-05 04:53:00,
2013-02-04 22:59:00,25.8,21.6,29.97,NE,40,2.0,10.0,84,0.00,,,0.00,Wunderground v.1.15,2013-02-05 04:59:00,
2013-02-04 23:00:00,25.8,21.6,29.97,NE,40,2.0,10.0,84,0.00,,,0.00,Wunderground v.1.15,2013-02-05 05:00:00,
2013-02-04 23:01:00,25.7,21.5,29.97,NE,40,2.0,10.0,84,0.00,,,0.00,Wunderground v.1.15,2013-02-05 05:01:00,
2013-02-04 23:02:00,25.7,21.5,29.97,NE,40,2.0,10.0,84,0.00,,,0.00,Wunderground v.1.15,2013-02-05 05:02:00,
2013-02-04 23:07:00,25.7,21.5,29.97,NE,40,1.0,10.0,84,0.00,,,0.00,Wunderground v.1.15,2013-02-05 05:07:00,
2013-02-04 23:12:00,25.5,21.6,29.98,NE,40,1.0,10.0,85,0.00,,,0.00,Wunderground v.1.15,2013-02-05 05:12:00,
2013-02-04 23:18:00,25.4,21.5,29.98,NE,40,0.0,10.0,85,0.00,,,0.00,Wunderground v.1.15,2013-02-05 05:18:00,
2013-02-04 23:24:00,25.0,21.4,29.99,NE,40,1.0,10.0,86,0.00,,,0.00,Wunderground v.1.15,2013-02-05 05:24:00,
2013-02-04 23:30:00,24.6,21.0,29.99,NE,40,2.0,2.0,86,0.00,,,0.00,Wunderground v.1.15,2013-02-05 05:30:00,
2013-02-04 23:36:00,24.4,21.1,29.98,NE,40,1.0,10.0,87,0.00,,,0.00,Wunderground v.1.15,2013-02-05 05:36:00,
2013-02-04 23:42:00,24.4,21.1,29.98,NE,40,0.0,10.0,87,0.00,,,0.00,Wunderground v.1.15,2013-02-05 05:42:00,
2013-02-04 23:47:00,24.4,21.1,29.97,NE,40,0.0,10.0,87,0.00,,,0.00,Wunderground v.1.15,2013-02-05 05:47:00,
2013-02-04 23:53:00,24.3,21.0,29.98,NE,40,0.0,10.0,87,0.00,,,0.00,Wunderground v.1.15,2013-02-05 05:53:00,
2013-02-04 23:58:00,24.3,21.0,29.97,NE,40,0.0,10.0,87,0.00,,,0.00,Wunderground v.1.15,2013-02-05 05:58:00,